sat.trackr.live / text

‹ back to catalog

STARLINK-36354

NORAD 67800 · 2026-032D

PAYLOAD ACTIVE UNKNOWN

§ Identity

Operator
Country
US
Launch date
2026-02-15
Launch site
AFWTR
Launch vehicle
Mass (kg)
RCS (m²)

Purposes: comms

External: N2YO · Heavens-Above · Gunter

§ Orbital elements

Epoch: 2026-09-19T19:01:49.285056Z

Period
93.91 min
Inclination
97.2850°
Eccentricity
0.0002184
Mean motion
15.33463689 rev/d
Perigee alt
464.0 km
Apogee alt
467.0 km
Semi-major
6,843.6 km
B*
4.0986e-4
RAAN
89.1579°
Arg perigee
86.8881°
Mean anomaly
273.2611°
Rev number
3,470

§ Raw data

STARLINK-363541 67800U 26032D   26262.79293154  .00013188  00000+0  40986-3 0  99922 67800  97.2850  89.1579 0002184  86.8881 273.2611 15.33463689 34701

JSON: /api/v1/satellites/67800 · /tle

For live sub-satellite position, see the globe view (requires WebGL).

§ Visibility from observer

Set your observer location to see the next 7 days of passes ≥ 10°. The values pass through the URL so the page stays shareable.

No JS? Fill the form by hand. The geolocation button needs JavaScript.